Location: Shepherdstown, WV
(39.4326°N, 77.8042°W)
Time: 22:20:09
(UTC-04:00)

Vanguard 1 Rocket - Pass Details

Date: 06 August 2021
Orbit: 650 x 4226 km, 34.3° (Epoch: 16 September)

Event Time Altitude Azimuth Distance (km) Brightness Sun altitude
Rises 08:24:38 0° 223° (SW) 8,359 11.9 23.3°
Reaches altitude 10° 08:30:43 10° 218° (SW) 7,419 11.7 24.5°
Maximum altitude 08:54:38 50° 153° (SSE) 4,237 11.5 29.1°
Drops below altitude 10° 09:10:32 10° 85° (E) 5,179 12.7 32.2°
Sets 09:13:50 0° 80° (E) 5,797 12.5 32.8°
